Погода в Гуаяме

Пуэрто-Рико     17°59′04″N   66°06′50″W
темп.,
°C
ветер,
м/с
пор.,
м/с
влажн.,
%
обл.,
%
осадки,
мм/ч
давл.,
гПа
погр.,
м
9 августа, вт
вт923:00+25св47887 0.1 1016382
02:00+24св58866 0.2 1015488
05:00+24св368420 0.1 1016377
08:00+27св487136 0.2 10171059
11:00+30всв685776 0.0 10171306
14:00+30всв6863100 0.0 10161287
17:00+28всв687396 0.1 10151038
20:00+25св478544 0.2 1017460
10 августа, ср
ср1023:00+24св478886 0.3 1017367
02:00+25всв4689100 0.8 1015389
05:00+25в4884100 0.4 1016562
08:00+26в4676100 0.5 1017983
11:00+29в566628 0.1 10171241
14:00+29в566495 0.1 10161159
17:00+28всв5670100 0.0 10151017
20:00+25всв4685100 0.2 1017281
11 августа, чт
чт1123:00+24всв478798 0.2 1017335
02:00+24всв4784100 0.3 1015452
05:00+24всв3687100 0.3 1015338
08:00+26всв4782100 0.8 1016767
11:00+27в577868 1.1 1017903
14:00+27в4675100 2.9 1016935
17:00+27в467496 0.4 1015947
20:00+25всв358785 0.7 1016296
12 августа, пт
пт1223:00+25всв478799 0.6 1017386
02:00+25всв4788100 1.3 1015453
05:00+24всв478866 0.6 1015445
08:00+26в578481 1.1 1016683
11:00+28в566827 0.1 10171155
14:00+28в567061 0.5 10161064
17:00+27всв46698 0.1 1014960
20:00+24св35848 0.1 1015318
13 августа, сб
сб1323:00+24св368525 0.0 1016340
02:00+24св348584 0.0 1015295
05:00+24ссв358268 0.1 1015212
08:00+27всв487776 0.3 1016889
11:00+27в467693 1.8 1016920
14:00+29в56659 2.1 10151182
17:00+27всв467231 0.0 1014963
20:00+25св358841 0.2 1015280